Regional Weather Roundup
Issued by NWS

Home | Current Version | Previous Version | Graphics & Text | Print | Product List | Glossary On
Versions: 1 2 3 4 5 6 7 8 9 10 11 12 13 14 15 16 17 18 19 20 21 22 23 24 25 26 27 28 29 30 31 32 33 34 35 36 37 38 39 40 41 42 43 44 45 46 47 48 49 50
000
ASUS43 KMPX 231401
RWRMN
WEATHER ROUNDUP FOR MINNESOTA
NATIONAL WEATHER SERVICE TWIN CITIES/CHANHASSEN MN
900 AM CDT WED APR 23 2014


NOTE: "FAIR" INDICATES FEW OR NO CLOUDS BELOW 12,000 FEET WITH NO
SIGNIFICANT WEATHER AND/OR OBSTRUCTIONS TO VISIBILITY. N/A MEANS
CURRENT SKY AND/OR WEATHER CONDITIONS ARE NOT AVAILABLE.

MNZ060>063-068>070-231500-
   Twin Cities Metro

CITY           SKY/WX    TMP DP  RH WIND       PRES   REMARKS
TWIN CITIES    CLOUDY    44  28  53 SE14      30.09F
ST PAUL        CLOUDY    45  28  51 SE15      30.10F
CRYSTAL        CLOUDY    46  26  45 SE14      30.07F
BLAINE         CLOUDY    46  28  49 SE10G17   30.09S
EDEN PRAIRIE   CLOUDY    46  28  49 SE14      30.06F
LAKEVILLE      CLOUDY    43  30  61 SE10      30.08F
SOUTH ST PAUL  CLOUDY    47  28  47 SE9       30.10F
LAKE ELMO      FAIR      45  30  57 SE12      30.11S
$$
MNZ001>005-007-008-013>017-022>024-027-028-231500-
   Northwest Minnesota

CITY           SKY/WX    TMP DP  RH WIND       PRES   REMARKS
BEMIDJI        CLOUDY    41  25  51 SE14      30.02S
HALLOCK          N/A     46  27  46 SE16      29.93F
ROSEAU         CLOUDY    45  27  49 SE9       30.00S
WARROAD        CLOUDY    39  28  65 E7        30.02F
THIEF RVR FALL CLOUDY    45  25  45 SE13      29.96F
CROOKSTON      CLOUDY    48  28  46 SE16      29.93F
FOSSTON        CLOUDY    46  21  36 SE14G20   29.96F
DETROIT LAKES  DRIZZLE   45  30  57 S15       29.97F
MOORHEAD       RAIN      45  41  87 SE24G31   29.92F
PARK RAPIDS    CLOUDY    44  25  47 SE13      30.01R
$$
MNZ006-009>011-018-025>026-231500-
   North Central Minnesota

CITY           SKY/WX    TMP DP  RH WIND       PRES   REMARKS
BAUDETTE       CLOUDY    42  25  50 SE8       30.04F
FLAG ISLAND    MOSUNNY   39  23  52 SE7       30.04F
INTL FALLS     PTSUNNY   44  24  45 SE7       30.08F
WASKISH        CLOUDY    43  27  52 SE7       30.04F
BIG FORK       CLOUDY    43  25  49 S7        30.07F
LONGVILLE      CLOUDY    41  27  56 SE6       30.05S
GRAND RAPIDS   CLOUDY    39  23  52 SE8       30.08S
CRANE LAKE     MOSUNNY   37  30  75 CALM      30.12F
ORR            PTSUNNY   41  21  45 SE7       30.07F
COOK           CLOUDY    41  27  56 SE6       30.10S
$$
MNZ012-019>021-037-231500-
   Northeast Minnesota

CITY           SKY/WX    TMP DP  RH WIND       PRES   REMARKS
DULUTH         CLOUDY    38  26  62 E10       30.11S
ELY            PTSUNNY   43  25  49 S3        30.11F
HIBBING        CLOUDY    40  27  59 SE8       30.10F
EVELETH        CLOUDY    39  27  60 CALM      30.11F
DULUTH HARBOR  CLOUDY    32  28  86 CALM      30.16S
TWO HARBORS    PTSUNNY   37  27  65 E5        30.12S
SILVER BAY     PTSUNNY   39  30  70 NE3       30.12F
GRAND MARAIS     N/A     36  30  79 E3        30.17S
G MARAIS ARPRT SUNNY     39  21  48 CALM      30.14S
$$
MNZ029>031-032-039>041-046>048-054>057-064-231500-
   West Central Minnesota

CITY           SKY/WX    TMP DP  RH WIND       PRES   REMARKS
FERGUS FALLS   RAIN      41  36  81 SE17G26   29.94F
WHEATON        LGT RAIN  45  43  93 SE25G32   29.94F
MORRIS         RAIN      41  39  93 SE24G30   29.94F
ALEXANDRIA     LGT RAIN  41  34  76 SE10      30.02R
ELBOW LAKE     RAIN      40  37  89 SE17G23   29.98S
WADENA         CLOUDY    43  27  52 SE16      30.00S
GLENWOOD       LGT RAIN  39  36  87 SE15G21   30.01F
APPLETON       LGT RAIN  43  37  81 SE21      29.93F
BENSON         LGT RAIN  41  37  87 S17G23    29.99F
ORTONVILLE     CLOUDY    43  37  81 SE16G24   29.91S
MADISON        CLOUDY    46  39  76 SE21      29.93S
WILLMAR        HVY RAIN  41  36  81 SE15      30.04S
$$
MNZ033>034-036-042>043-049>051-058-059-231500-
   Central Minnesota

CITY           SKY/WX    TMP DP  RH WIND       PRES   REMARKS
ST CLOUD       CLOUDY    46  26  45 SE12G20   30.05S
SAUK CENTRE    LGT RAIN  40  33  74 SE12      30.04R
PAYNESVILLE    RAIN      40  33  73 SE5       30.05R
AITKIN         CLOUDY    46  27  46 SE12      30.06S
PINE RIVER     CLOUDY    43  28  56 SE9       30.08R
BRAINERD       CLOUDY    49  26  41 S8        30.07R
STAPLES        CLOUDY    45  25  45 SE10      30.03S
LONG PRAIRIE   FAIR      43  28  56 SE12      30.04R
LITTLE FALLS   CLOUDY    43  27  52 SE12G17   30.05S
LITCHFIELD     LGT RAIN  43  34  70 SE9       30.04S
BUFFALO        CLOUDY    45  26  48 SE13      30.06F
MAPLE LAKE     CLOUDY    46  31  57 SE10G17   30.06F
$$
MNZ037-044-045-052-053-231500-
   East Central Minnesota

CITY           SKY/WX    TMP DP  RH WIND       PRES   REMARKS
PRINCETON      CLOUDY    46  27  46 SE7       30.08S
MORA           CLOUDY    41  27  56 SE6       30.10F
CAMBRIDGE      CLOUDY    46  30  53 SE9       30.07S
MOOSE LAKE     CLOUDY    37  28  70 CALM      30.09S
HINCKLEY       FAIR      41  30  65 SE7       30.10S
CLOQUET        CLOUDY    36  27  69 E5        30.11S
MCGREGOR       CLOUDY    41  28  60 S7        30.09S
$$
MNZ071>073-080-081-089-090-097-098-231500-
   Southwest Minnesota

CITY           SKY/WX    TMP DP  RH WIND       PRES   REMARKS
MONTEVIDEO     LGT RAIN  43  39  87 SE18      29.97F
GRANITE FALLS  CLOUDY    43  36  76 E14G22    29.99F
CANBY          LGT RAIN  44  39  82 SE17      29.93R
MARSHALL       CLOUDY    43  36  75 SE21G28   29.92F
REDWOOD FALLS  LGT RAIN  43  37  79 SE17      30.00S
OLIVIA         LGT RAIN  43  36  75 SE12      30.01R
PIPESTONE      CLOUDY    46  37  71 SE22G28   29.86F
WINDOM         RAIN      43  36  75 SE20      29.96F
WORTHINGTON    CLOUDY    45  30  57 SE23G30   29.94S
JACKSON        CLOUDY    43  34  70 SE16      29.99F
TRACY          CLOUDY    44  37  77 SE18G25   29.93F
SLAYTON        CLOUDY    43  36  75 SE22G30   29.91F
$$
MNZ065>067-074>077-082>085-091>093-231500-
   South Central Minnesota

CITY           SKY/WX    TMP DP  RH WIND       PRES   REMARKS
MANKATO        CLOUDY    45  30  57 SE18      30.05F
NEW ULM        LGT RAIN  43  36  75 SE16      30.03S
ST JAMES       RAIN      45  34  65 SE15      30.04S
FAIRMONT       CLOUDY    45  30  57 SE18G25   30.04F
GLENCOE        CLOUDY    45  30  55 SE15      30.03F
FARIBAULT      CLOUDY    46  25  42 SE16G22   30.08F
OWATONNA       DRIZZLE   43  30  61 SE16      30.07F
WASECA         CLOUDY    43  28  56 SE21      30.08F
ALBERT LEA     CLOUDY    43  30  61 SE15G23   30.07F
$$
MNZ078>079-086>088-094>096-231500-
   Southeast Minnesota

CITY           SKY/WX    TMP DP  RH WIND       PRES   REMARKS
ROCHESTER      CLOUDY    43  28  55 SE16G23   30.11S
RED WING       CLOUDY    46  27  46 SE12      30.11F
STANTON        CLOUDY    45  28  53 S10       30.09F
DODGE CENTER   CLOUDY    45  30  57 SE15      30.09F
WINONA         CLOUDY    43  32  65 SE9       30.15F
AUSTIN         CLOUDY    43  28  56 SE13      30.09F
PRESTON        CLOUDY    43  29  58 SE15      30.13F
$$
ABBREVIATIONS USED IN REMARKS
   TC - TEMPERATURES IN CELSIUS
  WCI - WIND CHILL INDEX
   HX - HEAT INDEX
  VSB - VISIBILITY
$$


USA.gov is the U.S. government's official web portal to all federal, state and local government web resources and services.